Location: Boulder, CO
(40.0083°N, 105.2472°W)
Time: 08:22:45
(UTC-06:00)

SORCE - Visible Passes

Search period start: 02 August 2015 00:00
Search period end: 12 August 2015 00:00
Orbit: 589 x 620 km, 40.0° (Epoch: 02 August)

Date Brightness Start Highest point End Pass type
(mag) Time Alt. Az. Time Alt. Az. Time Alt. Az.
02 Aug 5.9 21:52:00 10° W 21:56:27 89° N 21:58:40 29° E visible
02 Aug 8.1 23:34:00 10° W 23:35:24 19° W 23:35:24 19° W visible
03 Aug 5.8 22:03:52 10° W 22:08:18 83° S 22:09:38 44° ESE visible
03 Aug 8.6 23:45:57 10° W 23:46:22 12° W 23:46:22 12° W visible
04 Aug 5.9 22:15:43 10° W 22:20:07 67° SSW 22:20:34 61° SSE visible
05 Aug 6.0 20:45:35 10° W 20:50:03 90° SSW 20:54:29 10° E visible
05 Aug 6.4 22:27:36 10° W 22:31:31 47° SW 22:31:31 47° SW visible
06 Aug 6.0 20:57:26 10° W 21:01:53 79° S 21:05:45 13° ESE visible
06 Aug 7.3 22:39:36 10° W 22:42:29 28° SW 22:42:29 28° SW visible
07 Aug 6.1 21:09:17 10° W 21:13:41 62° SSW 21:16:44 19° ESE visible
07 Aug 8.1 22:51:51 10° W 22:53:28 17° WSW 22:53:28 17° WSW visible
08 Aug 6.6 21:21:11 10° W 21:25:25 43° SSW 21:27:45 23° SE visible
09 Aug 7.2 21:33:14 10° W 21:37:04 28° SSW 21:38:48 22° S visible
10 Aug 7.9 21:45:37 10° WSW 21:48:40 18° SSW 21:49:54 16° SSW visible
